Wind_Speed
49 50 50 50 50 50 49 48 48 47 46 45 45 46 46 48 48 48 48 48 49 49 49 48 47 48 49 49 49 50 50 50 50 49 49 47 45 45
50 51 51 51 52 51 50 50 48 47 45 45 47 47 48 48 48 49 49 49 49 48 48 47 48 49 49 49 50 50 50 49 49 49 48 46 46 46
50 50 50 50 50 50 50 50 50 49 48 47 48 48 48 48 48 49 49 49 48 48 47 48 49 50 50 50 50 50 49 48 48 48 48 47 47 46
49 50 50 50 49 49 49 49 50 51 50 48 48 49 48 48 49 50 49 48 48 48 48 49 50 50 51 51 51 50 49 48 48 49 48 48 47 47
48 49 49 50 49 49 50 50 50 50 50 50 50 48 48 49 49 49 50 48 48 48 49 50 50 51 51 51 51 50 49 49 49 49 48 48 47 47
48 48 48 48 49 49 49 49 49 49 50 50 49 48 48 48 48 49 48 48 48 48 50 50 51 51 51 51 50 49 49 49 49 49 48 47 47 46
47 48 47 47 48 48 48 49 49 49 50 48 48 48 47 47 46 46 47 47 48 49 50 50 51 51 51 50 49 49 49 48 48 48 46 46 45 44
47 46 46 47 46 46 46 47 48 48 47 48 48 48 47 47 46 45 45 47 48 48 49 49 50 49 49 49 49 48 48 48 48 47 45 44 43 42
46 45 45 45 45 44 44 44 45 46 47 47 47 47 46 46 46 46 47 47 48 48 47 47 48 48 48 48 48 48 47 46 45 44 43 42 41 41
45 45 44 43 42 43 43 43 43 44 44 46 46 46 46 45 46 47 47 47 47 46 46 46 45 46 46 46 46 46 44 44 44 43 42 41 39 39
44 43 43 42 41 42 43 43 44 44 45 45 44 44 44 45 45 46 46 46 45 44 45 45 45 46 46 45 45 44 43 42 42 40 39 38 37 36
42 40 41 41 42 42 43 43 43 44 44 43 44 44 44 44 44 44 44 43 43 42 42 43 43 44 44 43 42 41 41 40 38 37 36 35 34 34
40 40 40 41 41 43 43 43 43 44 43 43 42 43 43 43 42 42 41 41 41 41 41 41 41 41 42 41 40 39 38 37 36 35 34 34 33 32
38 39 39 40 40 41 42 42 42 42 41 41 41 41 41 40 40 39 39 40 40 40 39 40 40 39 39 38 37 36 36 34 34 34 33 32 30 30
38 39 39 40 40 40 41 41 40 39 38 39 39 39 39 38 38 38 38 39 39 39 39 38 38 38 37 35 34 33 32 32 32 32 31 30 28 27
39 39 40 40 40 39 39 38 37 37 37 37 37 37 37 37 37 38 37 38 38 38 37 38 37 36 35 34 33 32 31 31 30 30 29 27 25 25
39 40 40 40 40 38 37 36 36 36 35 35 36 36 36 36 36 36 37 37 37 37 36 36 35 34 33 32 32 31 31 30 29 27 26 26 25 24
39 39 40 39 38 37 36 35 35 35 35 35 35 36 35 35 35 36 36 36 37 35 34 33 32 32 32 32 31 30 29 29 27 26 25 24 23 23
38 38 38 37 36 35 35 35 34 34 35 34 35 35 35 35 35 35 36 36 35 33 32 31 31 31 30 30 29 29 27 26 25 24 23 23 22 22
36 35 34 34 34 34 35 35 34 34 35 35 35 35 35 35 35 35 35 34 33 31 30 30 30 29 28 27 26 25 25 24 23 23 22 21 21 21
32 32 32 32 33 33 33 34 34 35 35 35 35 35 35 34 34 33 33 32 31 29 28 28 28 27 27 26 24 23 22 22 21 20 20 20 19 19
30 30 31 31 31 31 32 33 34 34 34 34 34 34 34 33 33 32 31 30 28 27 27 27 26 25 25 24 23 22 21 20 19 18 18 18 17 17
29 29 29 29 29 30 31 31 32 32 32 32 32 31 31 31 30 29 28 28 27 27 27 26 25 24 23 22 21 20 19 18 17 16 16 16 16 16
Wind_Direction
273 275 275 276 276 276 275 276 277 277 278 280 281 281 281 282 282 284 283 284 285 286 286 286 286 288 290 291 291 292 292 291 290 289 289 287 285 285
273 275 276 276 275 275 275 275 276 278 279 279 280 281 282 282 282 283 282 283 284 284 284 285 286 288 289 290 291 292 291 291 290 290 289 288 286 286
273 274 276 276 275 275 275 275 275 277 279 279 280 281 281 281 282 282 282 282 282 283 283 284 285 287 289 290 292 291 290 289 290 291 291 289 288 287
273 275 276 276 275 275 275 276 276 277 278 279 280 280 281 281 281 281 282 282 282 282 284 285 285 286 288 290 290 290 290 290 291 291 291 290 289 288
274 276 277 276 275 275 275 276 276 276 277 279 279 280 280 281 281 281 281 281 281 282 284 286 287 288 288 289 289 289 290 291 292 292 292 290 289 288
275 277 277 277 276 276 275 275 276 277 279 279 280 280 281 282 282 281 280 281 282 284 285 286 287 288 288 289 289 289 290 291 292 292 291 290 288 288
276 276 276 276 276 275 276 276 277 279 279 279 280 281 282 282 282 281 280 281 283 285 287 287 287 287 288 289 289 289 290 291 292 292 290 289 289 287
275 275 275 275 275 276 277 277 278 280 280 280 281 282 282 282 282 282 282 282 283 285 286 287 288 288 288 288 289 290 291 291 292 291 289 288 287 286
274 274 273 273 274 275 276 278 280 281 281 282 282 283 283 282 283 284 285 285 285 285 285 286 288 289 289 288 289 291 292 291 291 289 287 286 285 285
272 273 272 273 274 275 278 279 281 282 282 283 283 283 282 283 284 285 286 287 286 286 286 286 288 289 290 289 290 291 291 291 290 288 286 285 284 285
273 273 273 274 274 276 279 280 282 283 283 283 283 282 282 284 285 286 286 286 285 286 288 288 288 289 289 290 290 290 291 290 289 287 285 284 285 285
272 272 273 273 275 276 278 280 281 283 284 283 283 282 283 284 284 286 286 285 286 287 289 290 290 290 289 289 290 290 289 289 287 286 286 286 287 286
273 273 273 274 276 278 279 280 281 282 284 285 284 283 283 283 284 285 285 286 288 289 289 289 290 291 292 292 290 289 289 287 285 286 288 287 287 286
274 274 274 275 277 280 281 281 281 282 283 283 284 284 283 283 284 285 285 286 288 289 289 289 290 290 291 291 290 289 288 287 287 288 288 287 286 285
274 275 275 277 278 279 281 281 282 281 281 283 284 283 282 282 282 283 284 287 289 289 289 289 290 292 292 290 289 290 289 289 290 289 288 286 285 282
273 274 276 277 278 278 280 281 281 281 282 282 283 282 282 281 282 282 283 286 287 288 288 290 289 291 291 290 290 291 291 291 291 290 287 285 283 281
274 275 277 277 277 277 278 279 279 279 280 281 281 281 281 281 281 282 283 286 288 289 288 289 288 288 289 290 291 291 291 290 290 289 286 283 281 282
277 278 278 277 276 277 277 278 278 279 279 279 280 280 281 282 282 282 283 285 288 287 287 287 286 288 289 290 290 289 288 288 287 286 285 282 280 281
279 278 277 277 278 278 278 277 278 278 280 281 280 280 281 282 282 282 283 285 286 286 286 285 284 286 288 289 288 286 285 285 285 284 283 281 281 281
278 278 277 277 278 278 279 278 278 279 280 281 281 281 282 282 283 282 282 283 283 283 285 285 286 285 286 288 287 283 282 282 283 283 282 281 283 284
278 278 278 278 278 279 279 278 278 280 281 281 281 281 282 282 282 282 281 281 281 281 284 286 286 284 284 284 284 282 281 280 280 280 279 279 282 283
279 279 278 278 279 279 280 280 280 281 281 281 281 281 282 281 282 282 282 280 279 280 283 285 285 284 282 281 281 281 279 279 279 279 278 278 280 282
279 280 280 280 280 281 282 282 282 283 282 282 282 282 282 282 282 282 280 279 279 281 283 284 285 283 282 280 281 280 277 275 274 276 277 278 281 283
Height
5704 5703 5702 5701 5699 5698 5696 5694 5693 5692 5692 5692 5690 5687 5685 5683 5681 5678 5676 5673 5671 5668 5665 5662 5659 5656 5653 5650 5646 5641 5637 5633 5628 5624 5621 5617 5614 5611
5691 5690 5689 5688 5686 5685 5683 5682 5680 5679 5679 5679 5677 5675 5672 5670 5668 5665 5663 5661 5658 5655 5652 5650 5647 5644 5641 5637 5633 5628 5624 5620 5615 5611 5607 5604 5601 5598
5678 5677 5676 5675 5673 5672 5670 5669 5668 5666 5665 5666 5664 5662 5659 5657 5654 5652 5649 5647 5644 5642 5639 5637 5634 5631 5628 5624 5620 5616 5611 5607 5603 5599 5594 5591 5587 5584
5666 5665 5663 5662 5660 5659 5658 5656 5655 5653 5651 5651 5650 5648 5646 5643 5641 5638 5636 5634 5631 5629 5627 5624 5621 5618 5614 5611 5606 5602 5598 5594 5590 5586 5582 5578 5574 5570
5654 5652 5651 5649 5648 5646 5645 5643 5642 5640 5638 5637 5636 5634 5632 5630 5627 5625 5623 5620 5618 5616 5614 5611 5607 5604 5600 5597 5593 5589 5585 5581 5578 5573 5568 5564 5560 5557
5641 5639 5638 5636 5635 5634 5632 5631 5629 5628 5626 5624 5622 5621 5619 5616 5614 5612 5610 5608 5606 5603 5600 5597 5594 5590 5587 5583 5580 5576 5572 5568 5564 5560 5555 5551 5547 5544
5628 5627 5625 5624 5623 5621 5620 5619 5617 5616 5614 5612 5610 5608 5606 5603 5601 5599 5597 5595 5593 5590 5587 5584 5581 5577 5573 5570 5566 5563 5559 5555 5551 5546 5542 5538 5535 5531
5615 5614 5613 5612 5611 5609 5608 5607 5605 5603 5601 5600 5598 5595 5593 5591 5589 5586 5584 5582 5581 5579 5575 5571 5567 5564 5560 5557 5553 5549 5545 5541 5538 5533 5529 5526 5522 5519
5602 5602 5601 5600 5599 5598 5596 5595 5593 5591 5589 5588 5585 5583 5581 5579 5577 5574 5571 5569 5567 5565 5562 5559 5555 5551 5547 5543 5539 5536 5532 5528 5525 5521 5517 5514 5511 5508
5590 5590 5589 5588 5587 5586 5584 5583 5581 5579 5577 5575 5574 5572 5569 5567 5565 5563 5559 5557 5554 5551 5548 5546 5542 5539 5535 5530 5526 5523 5519 5516 5512 5508 5505 5502 5500 5497
5579 5578 5577 5577 5575 5574 5573 5572 5570 5568 5565 5562 5560 5558 5556 5555 5552 5550 5547 5545 5543 5540 5536 5533 5530 5527 5523 5519 5515 5511 5507 5504 5500 5497 5494 5491 5489 5487
5568 5567 5566 5565 5563 5562 5560 5559 5558 5555 5553 5550 5548 5546 5544 5542 5540 5538 5535 5533 5530 5528 5525 5522 5518 5515 5512 5508 5504 5500 5496 5493 5489 5486 5484 5481 5479 5477
5556 5556 5554 5553 5552 5550 5548 5547 5545 5543 5541 5539 5536 5534 5532 5530 5528 5526 5524 5521 5519 5516 5513 5510 5507 5503 5500 5497 5493 5489 5486 5482 5479 5477 5474 5472 5469 5467
5545 5544 5543 5541 5540 5538 5537 5535 5533 5531 5529 5527 5525 5523 5521 5519 5517 5515 5512 5510 5507 5505 5502 5499 5496 5493 5490 5487 5483 5480 5476 5473 5470 5468 5465 5463 5461 5459
5533 5532 5531 5530 5528 5527 5525 5523 5521 5519 5517 5516 5514 5512 5510 5508 5506 5504 5502 5499 5496 5493 5491 5488 5485 5482 5479 5476 5474 5471 5468 5465 5462 5459 5457 5455 5453 5452
5521 5520 5519 5518 5516 5514 5513 5511 5509 5507 5506 5504 5503 5501 5499 5498 5496 5494 5492 5489 5487 5484 5481 5478 5475 5472 5470 5467 5464 5462 5459 5457 5454 5452 5449 5447 5446 5445
5509 5509 5508 5506 5504 5502 5501 5500 5498 5497 5495 5494 5492 5491 5489 5487 5485 5483 5481 5479 5476 5474 5471 5468 5465 5463 5460 5458 5456 5453 5451 5448 5446 5444 5443 5441 5440 5438
5498 5497 5495 5494 5492 5491 5490 5489 5487 5486 5485 5483 5482 5480 5478 5477 5475 5473 5471 5468 5466 5464 5461 5459 5457 5454 5452 5449 5447 5445 5443 5441 5439 5437 5436 5435 5433 5432
5486 5485 5484 5482 5481 5480 5479 5478 5477 5476 5474 5473 5471 5470 5468 5466 5464 5463 5461 5458 5456 5454 5452 5450 5448 5446 5444 5442 5439 5437 5436 5434 5432 5431 5429 5428 5427 5426
5475 5473 5472 5472 5471 5470 5469 5467 5466 5465 5464 5462 5461 5459 5458 5456 5454 5452 5450 5448 5446 5445 5443 5441 5439 5437 5435 5434 5432 5430 5428 5427 5426 5425 5424 5423 5421 5420
5464 5463 5462 5461 5460 5459 5458 5457 5456 5455 5453 5452 5450 5449 5447 5445 5443 5441 5440 5438 5437 5436 5434 5433 5431 5429 5427 5426 5424 5423 5422 5420 5419 5419 5418 5417 5416 5415
5455 5454 5453 5452 5451 5449 5448 5447 5445 5444 5442 5441 5440 5438 5436 5435 5433 5432 5430 5429 5428 5427 5426 5424 5423 5421 5420 5419 5418 5417 5416 5415 5414 5413 5412 5412 5411 5410
5446 5445 5444 5442 5441 5440 5438 5437 5435 5434 5432 5431 5429 5428 5426 5425 5424 5422 5421 5421 5420 5419 5418 5416 5415 5414 5413 5412 5411 5411 5410 5409 5409 5409 5408 5406 5406 5405